SCP
0 0 0 0 0 0 0 0 0 0 0 0 0 0 0 0 0 0 0 0 0 0 0 0 0 0 0 0 0 0 0 0 0 0 0 0 0 0 0 0 0 0 0 0 0 0 0 0 0 0 0 0 0 -0
0 0 0 0 0 0 0 0 0 0 0 0 0 0 0 0 0 0 0 0 0 0 0 0 0 0 0 0 0 0 0 0 0 0 0 0 0 0 0 0 0 0 0 0 0 0 0 0 0 0 0 0 0 0
0 0 0 0 0 0 0 0 0 0 0 0 0 0 0 0 0 0 0 0 0 0 0 0 0 0 0 0 0 0 0 0 0 0 0 0 0 0 0 0 0 0 0 0 0 0 0 0 0 0 0 0 0 0
0 0 0 0 0 0 0 0 0 0 0 0 -0 0 0 0 0 0 0 0 0 0 0 0 0 0 0 0 0 0 0 0 0 0 0 0 0 0 0 0 0 0 0 0 0 0 0 0 0 0 0 0 0 0
0 0 0 0 0 0 0 0 0 0 0 0 0 0 0 0 0 0 0 0 0 0 0 0 0 0 0 0 0 0 0 0 0 0 0 0 0 0 0 0 0 0 0 0 0 0 0 0 0 0 0 0 0 0
0 0 0 0 0 0 0 0 0 0 0 0 0 0 0 0 0 0 0 0 0 0 0 0 0 0 0 0 0 0 0 0 0 0 0 0 0 0 0 0 -0 0 0 0 0 0 0 0 0 0 0 0 0 0
0 0 0 0 0 0 0 0 0 0 0 0 0 0 -0 0 0 0 0 0 0 0 0 0 0 0 0 0 0 0 0 0 0 0 0 0 0 0 0 0 -0 0 0 0 0 0 0 0 0 0 0 0 0 0
0 0 0 0 0 -0 0 0 0 0 0 0 0 0 -0 0 0 0 0 0 0 0 0 0 0 0 0 0 0 0 0 0 0 0 0 0 0 0 0 -0 -0 0 0 0 0 0 -0 0 0 0 0 0 0 0
0 0 -0 -0 0 0 0 0 0 0 0 0 0 0 -0 0 0 0 0 0 0 0 0 0 0 0 0 0 0 0 0 0 0 0 0 0 0 0 0 0 0 0 0 0 0 0 0 0 0 0 0 0 0 0
0 -0 -0 0 0 0 0 0 0 0 0 -0 -0 0 0 0 0 0 0 0 0 0 0 0 0 0 0 0 0 0 0 0 0 0 0 0 0 0 0 0 0 0 0 0 0 -0 0 0 0 0 0 0 -0 0
-0 -0 0 -0 -0 -0 -0 -0 0 0 0 0 0 0 0 0 0 0 0 0 0 0 0 0 0 0 0 0 0 0 0 0 0 0 0 0 0 -0 -0 -0 0 0 0 0 -0 -0 0 0 0 0 -0 -0 0 0
0 0 0 -0 0 -0 -0 0 0 0 0 -0 -0 0 0 0 0 0 0 0 0 0 0 0 0 0 0 0 0 0 0 0 0 0 0 -0 -0 -0 0 0 0 0 0 0 0 0 -0 0 0 0 -0 0 -0 -0
-0 -0 -0 0 -0 -0 -0 -0 0 0 0 0 0 0 0 0 0 0 0 0 0 0 0 0 0 0 0 0 0 0 0 0 0 0 -0 -0 -0 0 0 0 0 0 0 0 0 0 0 -0 0 0 -0 -0 -0 0
-0 -0 -0 -0 -0 -0 -0 0 0 -0 0 0 0 0 0 0 0 0 0 0 0 0 0 0 0 0 0 0 0 0 0 0 0 0 0 -0 0 0 0 0 0 0 0 0 -0 -0 -0 -0 0 0 -0 -0 -0 -0
-0 -0 -0 -0 -0 -0 0 0 -0 0 -0 0 0 0 0 0 0 0 0 0 0 0 0 0 0 0 0 0 0 0 0 0 -0 -0 0 0 0 0 0 -0 -0 -0 0 -0 -0 -0 -0 0 0 0 0 -0 -0 -0
-0 -0 -0 -0 -0 0 0 0 0 0 0 0 0 0 0 0 0 0 0 0 0 0 0 0 0 0 0 0 0 0 0 0 0 0 0 0 0 0 0 0 0 0 0 -0 -0 -0 -0 -0 0 0 0 -0 -0 0
-0 -0 0 -0 0 0 -0 0 0 0 0 0 0 0 0 0 0 0 0 0 0 0 0 0 0 0 0 0 0 0 0 0 0 0 0 -0 -0 -0 -0 -0 -0 -0 -0 0 -0 -0 -0 -0 0 0 -0 0 0 0
-0 0 0 0 0 0 0 0 0 0 0 0 0 0 0 0 0 0 0 0 0 0 0 0 0 0 0 0 0 0 0 0 -0 -0 -0 -0 -0 -0 -0 -0 -0 -0 -0 -0 0 0 0 -0 0 0 0 0 0 0
-0 -0 0 -0 0 0 0 0 0 0 0 0 0 0 0 0 0 0 0 0 0 0 0 0 0 0 0 0 0 0 0 0 0 0 0 0 0 0 0 -0 -0 -0 -0 -0 -0 -0 -0 -0 -0 0 0 0 0 0
0 -0 -0 -0 0 0 0 0 0 0 0 0 0 0 0 0 0 0 0 0 0 0 0 0 0 0 0 0 0 -0 -0 -0 0 0 -0 -0 -0 0 0 0 0 -0 -0 -0 -0 -0 0 0 0 0 0 0 0 0
-0 0 -0 0 0 0 0 0 0 0 0 0 0 0 0 0 0 0 0 0 0 0 0 0 0 0 0 -0 -0 -0 -0 -0 -0 -0 -0 -0 -0 0 0 0 -0 -0 -0 -0 -0 -0 0 0 0 0 0 0 0 0
0 0 0 0 0 0 0 0 0 0 0 0 0 0 0 0 0 0 0 0 0 0 0 0 0 0 0 -0 -0 -0 -0 -0 -0 -0 -0 0 0 0 0 0 -0 -0 -0 -0 -0 -0 -0 0 0 0 0 0 0 0
0 0 0 0 0 0 0 0 0 0 0 0 0 0 0 0 0 0 0 0 0 0 0 0 0 0 0 0 -0 -0 -0 -0 -0 0 0 0 0 0 0 0 -0 -0 -0 -0 -0 -0 0 0 0 0 0 0 0 0
-0 0 0 0 0 0 0 0 0 0 0 0 0 0 0 0 0 0 0 0 0 0 0 0 0 0 0 0 -0 -0 0 0 -0 0 0 0 0 0 -0 -0 -0 -0 -0 -0 -0 0 0 0 0 0 0 0 0 0
0 0 0 0 0 0 0 0 0 0 0 0 0 0 0 0 0 0 0 0 0 0 0 0 0 0 0 0 -0 -0 0 0 0 0 0 0 0 0 -0 -0 -0 -0 -0 0 0 0 0 0 0 0 0 0 0 0
0 -0 0 0 0 0 0 0 0 0 0 0 0 0 0 0 0 0 0 0 0 0 0 0 0 0 -0 -0 -0 -0 0 0 0 0 0 0 0 0 0 -0 -0 -0 -0 0 0 0 0 0 0 0 0 0 0 0
0 -0 0 0 0 0 0 0 0 0 0 0 0 0 0 0 0 0 0 0 0 0 0 0 0 0 -0 -0 0 0 0 0 0 0 0 0 0 0 0 0 -0 0 0 0 0 0 0 0 0 0 0 0 0 0
0 0 0 0 0 0 0 0 0 -0 -0 -0 -0 0 0 0 0 0 0 0 -0 -0 -0 0 0 0 0 0 0 0 0 0 0 0 0 0 0 0 0 0 0 0 -0 0 0 0 0 0 0 0 0 0 0 0
0 0 0 0 0 0 0 -0 -0 -0 -0 -0 -0 0 0 0 0 -0 -0 -0 -0 -0 0 0 0 0 0 0 0 0 0 0 0 0 0 0 0 0 0 0 0 0 -0 0 0 0 0 0 0 0 0 0 0 0
0 0 -0 0 -0 -0 -0 -0 0 0 -0 -0 -0 -0 -0 -0 -0 -0 -0 -0 0 0 0 0 0 -0 0 0 0 0 0 0 0 0 0 0 0 0 0 0 0 -0 0 0 0 0 0 0 0 0 0 0 0 0
-0 -0 -0 -0 0 0 0 0 0 0 0 -0 -0 -0 0 -0 -0 -0 0 0 0 0 0 0 0 0 0 0 0 0 0 0 0 0 0 0 0 0 0 0 0 0 0 0 0 0 0 0 0 0 0 0 0 0
-0 -0 -0 0 0 0 0 0 -0 -0 0 -0 -0 -0 0 0 0 0 0 -0 0 0 0 0 0 0 0 0 0 0 0 0 0 0 0 0 0 0 0 0 0 0 0 0 0 0 0 0 0 0 0 0 0 0
-0 -0 -0 -0 0 0 -0 -0 -0 0 -0 -0 -0 0 0 0 0 0 0 0 0 0 0 0 0 0 0 0 0 0 0 0 0 0 0 0 0 0 0 0 0 0 0 0 0 0 0 0 0 0 0 0 0 0
Wind_Speed_500mb
66 64 63 64 64 65 63 66 72 73 72 70 72 68 64 65 64 66 70 67 60 18 44 44 68 47 24 26 11 23 13 7 8 10 7 8 7 10 3 7 13 17 15 9 6 6 19 29 13 17 12 8 11 15
60 65 66 64 66 66 67 65 69 77 71 75 74 71 67 64 71 70 78 63 62 56 26 35 61 58 58 49 44 41 8 17 28 5 4 4 3 3 7 7 1 5 15 13 23 19 12 44 24 42 31 18 16 13
64 62 61 62 65 66 63 69 68 65 73 75 73 72 75 69 68 80 88 69 57 53 52 62 50 57 76 73 56 29 23 19 17 16 12 5 9 8 8 13 10 10 21 8 4 24 44 61 70 69 55 54 48 42
64 61 65 65 67 65 67 68 71 70 60 60 70 74 70 76 71 81 73 74 74 25 15 38 41 66 71 63 69 66 55 34 31 33 11 6 6 21 7 7 10 15 23 12 16 42 49 75 73 79 76 71 68 65
65 66 67 68 69 67 68 71 71 68 73 70 67 73 81 65 72 72 80 77 74 67 11 10 29 53 55 68 80 64 58 49 27 16 7 8 10 3 2 3 15 27 19 13 20 65 34 43 61 53 52 47 38 50
61 63 67 69 66 66 63 63 59 63 64 69 76 81 83 74 68 61 43 77 76 76 17 6 10 20 52 47 53 60 54 52 32 15 11 13 13 16 6 10 42 44 62 81 67 92 71 70 71 70 61 60 57 49
60 62 66 64 65 63 61 58 60 59 59 62 64 74 86 65 59 69 22 28 51 74 17 7 6 14 25 31 30 33 42 27 25 15 14 10 14 19 5 17 70 37 49 64 80 88 67 82 69 65 48 41 41 45
60 63 65 64 61 60 58 57 58 58 59 59 58 61 69 59 59 72 82 59 59 80 27 7 3 11 35 15 12 22 18 21 14 10 8 10 12 10 13 22 36 63 71 76 88 83 97 91 85 79 66 55 58 55
59 62 63 63 60 59 57 57 57 55 54 54 55 54 53 60 36 49 76 62 58 34 17 12 16 9 33 13 14 15 15 4 11 5 8 17 6 14 19 38 62 85 53 71 63 57 62 69 69 68 64 54 60 59
60 61 64 62 60 54 54 53 53 50 49 46 54 34 22 41 47 31 41 22 43 34 19 6 22 9 28 12 10 13 11 6 6 10 15 9 10 43 61 88 103 117 99 78 62 67 60 64 62 63 65 58 56 57
56 52 49 44 42 43 45 44 44 40 33 37 20 17 26 30 39 27 14 20 13 9 23 17 18 14 26 7 7 14 6 4 5 8 8 6 8 15 61 79 79 80 69 62 62 63 60 60 56 43 37 35 43 51
33 31 32 33 35 33 34 36 35 32 36 19 9 13 36 22 14 12 9 8 8 10 12 11 19 24 20 14 8 10 8 4 11 5 3 7 11 51 52 58 49 42 44 46 44 46 50 49 40 40 43 29 24 38
34 35 35 39 42 43 49 43 38 35 32 44 14 6 14 13 14 14 18 6 7 7 18 27 10 17 15 11 10 5 8 12 8 4 9 10 32 50 57 50 43 37 30 26 29 35 37 34 35 42 49 48 33 24
38 40 43 46 46 55 42 38 36 32 28 18 20 10 9 9 8 7 15 10 16 40 57 60 19 7 11 5 6 10 2 5 4 1 13 8 59 57 44 37 31 22 18 20 23 26 32 35 35 40 49 55 60 53
42 43 50 49 51 33 26 27 32 39 31 16 14 12 11 8 5 3 8 27 30 58 66 27 16 12 4 7 4 8 6 10 12 11 10 45 51 41 32 24 22 14 23 30 29 26 27 33 36 27 36 49 56 55
43 47 53 50 32 23 21 22 26 33 8 6 3 5 3 3 5 7 4 15 55 57 49 16 9 8 8 9 9 17 14 13 9 9 30 26 30 31 28 27 21 24 37 41 39 39 37 33 33 27 31 42 52 57
40 56 50 32 21 23 21 21 6 4 2 3 3 9 5 2 8 14 27 17 60 49 7 7 11 12 7 6 4 10 11 9 22 33 25 34 34 33 30 26 30 34 43 47 47 43 39 34 34 28 29 33 51 56
47 48 30 26 18 22 20 6 4 3 3 5 4 9 8 4 7 14 19 50 32 9 15 7 17 5 10 12 7 9 37 45 42 51 59 63 63 60 50 41 42 44 43 40 37 32 30 29 25 21 23 34 50 58
32 28 27 14 31 20 8 10 8 4 1 1 4 13 7 10 5 10 37 50 27 21 24 10 5 5 7 8 4 14 17 22 27 33 36 41 45 40 32 30 29 29 30 30 28 26 25 24 21 18 19 33 45 51
40 39 33 29 35 7 7 6 9 7 4 6 10 15 8 11 19 16 45 33 22 10 4 2 8 8 7 3 20 25 30 31 34 43 35 33 31 18 14 14 16 20 24 27 28 25 22 19 18 14 13 23 36 42
31 30 39 54 24 8 5 6 7 5 10 5 11 13 9 17 15 16 14 26 5 9 4 15 30 33 28 37 34 30 37 44 44 39 42 43 31 20 14 13 17 20 23 24 24 23 20 16 11 7 3 13 24 31
36 49 56 31 6 5 5 5 6 6 2 7 13 4 9 5 8 12 23 8 10 13 20 26 37 32 36 37 37 32 31 37 47 46 43 28 16 14 10 12 18 23 28 26 24 21 18 12 8 9 9 12 18 22
22 23 12 5 5 4 4 9 3 3 3 3 4 5 1 1 10 29 5 13 17 30 41 46 48 44 43 41 39 31 29 36 38 41 31 21 6 4 8 14 22 28 31 27 21 18 15 12 11 13 14 16 18 23
8 5 5 5 6 2 4 3 2 5 8 4 5 5 5 8 22 4 7 10 32 45 54 58 58 58 56 51 46 41 38 39 40 34 29 20 9 6 10 21 26 31 30 24 18 16 12 11 12 14 16 18 24 28
3 7 4 6 5 7 5 5 7 6 2 4 4 6 6 15 5 9 9 10 47 60 61 62 64 68 66 57 49 46 40 39 38 29 30 24 19 12 11 18 25 38 30 22 15 11 10 12 15 18 22 22 26 31
4 4 2 9 3 7 9 5 6 10 6 4 10 6 7 6 4 12 8 37 59 48 59 72 73 70 68 61 58 59 42 34 32 32 31 27 26 16 13 10 25 23 20 18 10 5 7 14 17 21 26 29 28 33
3 7 4 5 5 6 3 2 1 3 7 12 7 8 7 8 14 10 22 38 36 48 56 58 66 71 71 68 64 58 42 32 33 31 25 25 21 17 11 2 3 10 8 6 2 5 7 13 19 23 28 34 33 32
3 13 8 10 8 7 6 3 8 12 10 13 13 11 14 12 10 5 8 8 17 31 42 47 54 61 65 62 54 46 41 33 32 33 29 28 24 19 13 6 2 8 5 2 5 9 13 15 20 26 30 35 39 37
6 9 13 1 1 7 11 13 9 9 6 10 6 6 7 10 9 13 21 22 24 26 31 39 45 52 54 51 45 38 39 36 36 40 39 35 33 25 13 6 6 9 9 8 13 17 19 22 26 31 36 39 42 41
5 15 6 5 8 11 12 27 12 15 15 19 11 13 17 26 36 39 35 31 27 24 26 30 32 38 44 43 40 40 39 38 39 38 35 32 26 20 16 9 6 10 12 18 20 26 32 33 36 39 41 42 42 41
6 11 4 10 8 10 15 22 27 29 26 21 32 32 23 17 23 31 30 21 16 16 22 31 35 37 36 33 34 38 39 40 42 39 31 25 21 19 16 13 12 13 17 21 25 30 35 39 40 41 41 40 40 38
10 14 6 6 7 10 16 7 7 9 9 12 11 16 7 6 11 10 10 11 12 13 19 29 35 38 39 38 34 31 29 30 30 30 29 25 22 20 18 18 18 24 27 30 34 37 39 41 44 43 42 42 40 35
5 7 9 9 7 6 7 7 8 8 11 10 12 15 12 8 9 6 6 10 10 12 17 21 25 27 28 29 29 28 25 24 25 25 24 23 21 21 23 26 29 32 35 38 41 43 44 43 44 43 40 38 37 36
Wind_Direction_500mb
283 280 281 282 280 277 278 277 270 267 263 264 258 254 253 245 237 235 240 237 233 250 251 228 228 221 199 190 166 158 125 196 162 197 187 217 174 219 120 185 179 171 162 194 139 206 274 189 113 176 224 230 222 212
281 284 283 282 282 284 278 283 271 265 263 257 260 256 249 244 240 234 243 241 230 240 255 236 229 233 227 221 210 182 213 169 175 153 223 120 236 97 177 249 292 263 196 182 187 215 242 196 218 225 214 231 253 256
280 280 279 280 281 281 282 277 274 267 271 263 251 257 252 240 241 236 233 235 236 225 250 255 242 234 231 240 237 209 212 206 210 199 158 184 230 128 182 236 187 254 186 227 85 250 243 251 248 252 252 253 259 267
282 280 278 280 280 280 279 278 274 270 264 264 268 253 255 256 231 239 240 232 226 213 208 242 237 234 235 232 232 227 234 217 215 204 182 161 203 197 226 237 204 196 149 192 261 275 275 264 256 268 273 268 264 265
283 283 283 281 280 280 281 277 274 272 266 264 265 267 254 246 237 234 239 242 231 208 213 200 227 217 218 227 233 234 229 225 196 160 193 211 209 177 220 27 246 182 203 205 248 261 248 263 278 278 277 282 273 261
279 285 285 281 280 279 277 282 277 271 271 265 259 260 254 244 232 227 238 237 232 221 231 219 217 215 218 218 219 220 219 220 212 187 186 224 200 180 229 245 261 239 240 236 247 262 268 272 276 280 274 275 273 264
280 285 285 284 280 280 277 277 279 278 276 263 263 254 256 243 226 219 202 205 225 208 204 175 211 177 192 185 187 197 209 211 214 202 219 196 189 185 223 253 260 268 264 263 262 261 268 266 266 278 273 277 267 260
279 283 283 282 282 279 277 278 278 275 271 268 266 258 252 232 229 231 229 219 197 186 200 201 114 139 171 161 144 179 178 197 218 230 202 176 160 206 250 252 272 268 270 265 262 260 263 270 272 273 269 265 260 252
285 284 280 280 281 278 275 274 273 274 269 264 263 266 246 230 205 241 226 235 226 195 179 146 147 193 165 144 143 152 163 161 206 216 223 164 202 222 234 245 255 269 258 274 281 275 271 265 270 271 267 254 248 246
284 281 281 280 277 273 270 270 270 270 269 264 274 231 225 219 228 226 183 195 201 199 207 156 138 152 157 140 157 129 169 208 199 231 168 218 251 253 256 261 267 275 275 281 275 277 271 266 270 271 265 263 250 242
281 278 278 274 271 272 277 273 266 266 270 258 214 190 192 167 167 184 219 187 202 179 159 140 148 129 173 141 146 195 173 187 205 248 176 254 271 239 255 256 265 272 280 278 276 277 276 280 279 270 266 267 242 229
283 282 280 279 282 287 287 276 264 252 241 245 250 145 156 174 194 197 187 188 195 185 133 125 132 124 148 153 119 174 170 149 240 143 94 271 249 254 266 268 278 286 278 278 275 270 285 281 269 250 245 253 243 230
281 289 289 287 285 287 294 270 254 248 244 221 190 257 177 223 204 191 174 188 149 143 145 142 119 124 134 158 100 127 147 210 116 89 230 232 258 274 275 287 300 297 294 289 284 281 284 282 266 246 234 229 230 229
280 286 283 288 290 292 281 257 239 231 229 216 162 216 220 203 225 215 165 167 161 151 146 147 119 126 138 94 135 149 184 92 80 277 237 245 257 269 279 301 303 310 312 316 315 310 304 283 284 249 239 231 231 234
275 282 285 285 293 283 263 234 233 235 227 225 160 180 222 160 55 270 149 134 138 150 141 122 87 115 128 109 98 106 56 248 206 224 225 245 278 296 296 286 288 289 320 320 317 319 319 306 302 258 236 231 223 222
269 279 276 292 279 254 232 230 217 208 191 181 146 152 206 74 187 154 80 136 146 152 146 109 121 149 175 143 146 211 139 216 233 221 247 294 311 322 304 303 290 293 305 312 312 314 312 310 300 268 230 226 213 211
267 267 284 284 258 229 220 225 110 80 134 65 199 133 209 140 230 140 149 169 158 145 134 122 133 189 111 84 236 178 196 225 244 261 293 315 324 339 328 313 306 304 304 307 307 304 304 307 308 276 246 230 215 209
257 269 268 259 230 189 194 106 108 159 188 173 153 176 161 92 168 136 146 148 158 124 131 170 124 116 172 168 248 221 230 261 275 281 291 300 303 301 293 296 302 307 314 313 310 307 308 311 312 290 254 218 211 209
253 248 248 209 175 152 140 143 186 125 162 277 254 170 174 153 219 207 157 164 153 148 129 126 142 193 214 212 217 30 357 342 324 313 309 307 295 298 295 298 307 316 319 321 320 318 314 311 309 299 269 221 208 207
249 233 219 185 166 163 120 113 162 148 139 171 183 159 145 118 142 161 163 151 133 123 78 149 207 228 199 22 344 343 351 342 328 326 342 341 337 316 314 323 331 338 339 338 331 328 324 320 318 305 268 218 202 202
146 169 191 161 141 99 87 143 140 131 134 134 168 158 118 135 140 156 171 165 139 175 210 219 243 259 268 279 293 313 326 332 336 331 327 318 321 317 325 348 0 360 356 352 345 344 345 342 340 327 260 201 193 193
101 127 129 146 81 104 99 90 101 125 137 135 148 107 115 148 168 164 156 210 228 211 196 228 247 254 258 276 281 297 315 302 309 323 321 304 305 309 346 12 20 16 10 1 357 359 3 12 59 86 116 153 163 174
98 97 82 107 109 68 90 138 130 124 121 244 99 56 320 17 186 156 162 221 232 233 235 244 257 261 262 265 267 292 291 274 284 301 296 284 286 346 31 31 32 29 14 5 9 17 27 45 87 100 117 138 154 160
100 84 73 72 66 198 126 38 94 116 114 95 127 237 255 192 163 202 232 245 223 228 230 238 246 252 253 253 256 263 278 280 271 278 271 259 231 145 64 51 37 29 17 5 19 30 42 64 90 111 123 134 139 143
94 0 61 360 69 79 62 7 342 53 248 215 118 285 238 167 145 204 221 250 225 224 229 232 234 240 244 253 258 262 265 268 264 262 251 228 232 172 77 59 40 25 6 358 11 38 68 89 104 114 120 129 137 138
87 311 93 188 249 122 186 129 193 209 174 234 231 228 148 117 152 238 225 238 237 236 228 226 228 232 237 242 250 256 258 252 255 244 234 224 228 204 145 68 33 355 350 345 1 47 108 119 123 126 127 128 134 138
142 260 168 177 116 137 22 297 231 115 212 210 203 169 159 209 233 240 225 227 231 235 233 232 228 230 234 239 243 248 247 238 237 227 217 208 205 220 193 73 36 318 310 324 3 114 124 134 136 136 137 136 137 142
156 174 171 176 184 197 167 201 191 219 226 213 148 183 187 210 242 256 224 234 258 253 243 232 229 225 229 234 237 236 229 224 219 212 205 201 194 203 151 142 220 215 104 259 152 146 144 143 142 140 142 142 139 139
184 177 172 194 201 217 217 208 226 234 194 188 174 230 241 237 251 273 283 286 286 276 243 227 220 220 221 221 222 219 215 213 209 205 205 200 193 191 167 163 199 161 122 177 170 157 150 147 146 147 147 146 141 139
215 184 142 166 180 230 235 203 230 227 219 221 245 272 272 272 281 281 280 282 276 257 230 211 204 213 214 212 210 207 208 205 206 210 210 207 200 195 183 174 192 146 166 182 178 171 159 155 151 150 150 147 144 143
186 195 247 212 243 250 246 249 253 263 258 254 248 249 257 285 289 278 266 265 252 229 206 197 189 190 196 198 199 200 201 202 201 202 200 201 200 194 196 210 185 162 183 178 173 169 163 158 156 154 152 149 147 148
198 211 182 252 270 276 290 263 265 258 229 216 238 221 253 244 262 263 265 246 214 195 191 187 185 185 186 188 189 191 194 196 197 203 208 211 210 210 213 206 175 176 176 170 167 164 162 160 155 154 152 150 147 148
266 236 243 275 279 251 233 240 241 266 223 224 227 202 206 232 252 266 238 192 169 163 163 166 169 173 181 188 192 193 195 195 194 194 195 194 190 188 182 173 171 170 168 165 162 159 159 159 156 153 151 149 147 147
Wind_Speed_850mb
66 64 63 64 64 65 63 66 72 73 72 70 72 68 64 65 64 66 70 67 60 18 44 44 68 47 24 26 11 23 13 7 8 10 7 8 7 10 3 7 13 17 15 9 6 6 19 29 13 17 12 8 11 15
60 65 66 64 66 66 67 65 69 77 71 75 74 71 67 64 71 70 78 63 62 56 26 35 61 58 58 49 44 41 8 17 28 5 4 4 3 3 7 7 1 5 15 13 23 19 12 44 24 42 31 18 16 13
64 62 61 62 65 66 63 69 68 65 73 75 73 72 75 69 68 80 88 69 57 53 52 62 50 57 76 73 56 29 23 19 17 16 12 5 9 8 8 13 10 10 21 8 4 24 44 61 70 69 55 54 48 42
64 61 65 65 67 65 67 68 71 70 60 60 70 74 70 76 71 81 73 74 74 25 15 38 41 66 71 63 69 66 55 34 31 33 11 6 6 21 7 7 10 15 23 12 16 42 49 75 73 79 76 71 68 65
65 66 67 68 69 67 68 71 71 68 73 70 67 73 81 65 72 72 80 77 74 67 11 10 29 53 55 68 80 64 58 49 27 16 7 8 10 3 2 3 15 27 19 13 20 65 34 43 61 53 52 47 38 50
61 63 67 69 66 66 63 63 59 63 64 69 76 81 83 74 68 61 43 77 76 76 17 6 10 20 52 47 53 60 54 52 32 15 11 13 13 16 6 10 42 44 62 81 67 92 71 70 71 70 61 60 57 49
60 62 66 64 65 63 61 58 60 59 59 62 64 74 86 65 59 69 22 28 51 74 17 7 6 14 25 31 30 33 42 27 25 15 14 10 14 19 5 17 70 37 49 64 80 88 67 82 69 65 48 41 41 45
60 63 65 64 61 60 58 57 58 58 59 59 58 61 69 59 59 72 82 59 59 80 27 7 3 11 35 15 12 22 18 21 14 10 8 10 12 10 13 22 36 63 71 76 88 83 97 91 85 79 66 55 58 55
59 62 63 63 60 59 57 57 57 55 54 54 55 54 53 60 36 49 76 62 58 34 17 12 16 9 33 13 14 15 15 4 11 5 8 17 6 14 19 38 62 85 53 71 63 57 62 69 69 68 64 54 60 59
60 61 64 62 60 54 54 53 53 50 49 46 54 34 22 41 47 31 41 22 43 34 19 6 22 9 28 12 10 13 11 6 6 10 15 9 10 43 61 88 103 117 99 78 62 67 60 64 62 63 65 58 56 57
56 52 49 44 42 43 45 44 44 40 33 37 20 17 26 30 39 27 14 20 13 9 23 17 18 14 26 7 7 14 6 4 5 8 8 6 8 15 61 79 79 80 69 62 62 63 60 60 56 43 37 35 43 51
33 31 32 33 35 33 34 36 35 32 36 19 9 13 36 22 14 12 9 8 8 10 12 11 19 24 20 14 8 10 8 4 11 5 3 7 11 51 52 58 49 42 44 46 44 46 50 49 40 40 43 29 24 38
34 35 35 39 42 43 49 43 38 35 32 44 14 6 14 13 14 14 18 6 7 7 18 27 10 17 15 11 10 5 8 12 8 4 9 10 32 50 57 50 43 37 30 26 29 35 37 34 35 42 49 48 33 24
38 40 43 46 46 55 42 38 36 32 28 18 20 10 9 9 8 7 15 10 16 40 57 60 19 7 11 5 6 10 2 5 4 1 13 8 59 57 44 37 31 22 18 20 23 26 32 35 35 40 49 55 60 53
42 43 50 49 51 33 26 27 32 39 31 16 14 12 11 8 5 3 8 27 30 58 66 27 16 12 4 7 4 8 6 10 12 11 10 45 51 41 32 24 22 14 23 30 29 26 27 33 36 27 36 49 56 55
43 47 53 50 32 23 21 22 26 33 8 6 3 5 3 3 5 7 4 15 55 57 49 16 9 8 8 9 9 17 14 13 9 9 30 26 30 31 28 27 21 24 37 41 39 39 37 33 33 27 31 42 52 57
40 56 50 32 21 23 21 21 6 4 2 3 3 9 5 2 8 14 27 17 60 49 7 7 11 12 7 6 4 10 11 9 22 33 25 34 34 33 30 26 30 34 43 47 47 43 39 34 34 28 29 33 51 56
47 48 30 26 18 22 20 6 4 3 3 5 4 9 8 4 7 14 19 50 32 9 15 7 17 5 10 12 7 9 37 45 42 51 59 63 63 60 50 41 42 44 43 40 37 32 30 29 25 21 23 34 50 58
32 28 27 14 31 20 8 10 8 4 1 1 4 13 7 10 5 10 37 50 27 21 24 10 5 5 7 8 4 14 17 22 27 33 36 41 45 40 32 30 29 29 30 30 28 26 25 24 21 18 19 33 45 51
40 39 33 29 35 7 7 6 9 7 4 6 10 15 8 11 19 16 45 33 22 10 4 2 8 8 7 3 20 25 30 31 34 43 35 33 31 18 14 14 16 20 24 27 28 25 22 19 18 14 13 23 36 42
31 30 39 54 24 8 5 6 7 5 10 5 11 13 9 17 15 16 14 26 5 9 4 15 30 33 28 37 34 30 37 44 44 39 42 43 31 20 14 13 17 20 23 24 24 23 20 16 11 7 3 13 24 31
36 49 56 31 6 5 5 5 6 6 2 7 13 4 9 5 8 12 23 8 10 13 20 26 37 32 36 37 37 32 31 37 47 46 43 28 16 14 10 12 18 23 28 26 24 21 18 12 8 9 9 12 18 22
22 23 12 5 5 4 4 9 3 3 3 3 4 5 1 1 10 29 5 13 17 30 41 46 48 44 43 41 39 31 29 36 38 41 31 21 6 4 8 14 22 28 31 27 21 18 15 12 11 13 14 16 18 23
8 5 5 5 6 2 4 3 2 5 8 4 5 5 5 8 22 4 7 10 32 45 54 58 58 58 56 51 46 41 38 39 40 34 29 20 9 6 10 21 26 31 30 24 18 16 12 11 12 14 16 18 24 28
3 7 4 6 5 7 5 5 7 6 2 4 4 6 6 15 5 9 9 10 47 60 61 62 64 68 66 57 49 46 40 39 38 29 30 24 19 12 11 18 25 38 30 22 15 11 10 12 15 18 22 22 26 31
4 4 2 9 3 7 9 5 6 10 6 4 10 6 7 6 4 12 8 37 59 48 59 72 73 70 68 61 58 59 42 34 32 32 31 27 26 16 13 10 25 23 20 18 10 5 7 14 17 21 26 29 28 33
3 7 4 5 5 6 3 2 1 3 7 12 7 8 7 8 14 10 22 38 36 48 56 58 66 71 71 68 64 58 42 32 33 31 25 25 21 17 11 2 3 10 8 6 2 5 7 13 19 23 28 34 33 32
3 13 8 10 8 7 6 3 8 12 10 13 13 11 14 12 10 5 8 8 17 31 42 47 54 61 65 62 54 46 41 33 32 33 29 28 24 19 13 6 2 8 5 2 5 9 13 15 20 26 30 35 39 37
6 9 13 1 1 7 11 13 9 9 6 10 6 6 7 10 9 13 21 22 24 26 31 39 45 52 54 51 45 38 39 36 36 40 39 35 33 25 13 6 6 9 9 8 13 17 19 22 26 31 36 39 42 41
5 15 6 5 8 11 12 27 12 15 15 19 11 13 17 26 36 39 35 31 27 24 26 30 32 38 44 43 40 40 39 38 39 38 35 32 26 20 16 9 6 10 12 18 20 26 32 33 36 39 41 42 42 41
6 11 4 10 8 10 15 22 27 29 26 21 32 32 23 17 23 31 30 21 16 16 22 31 35 37 36 33 34 38 39 40 42 39 31 25 21 19 16 13 12 13 17 21 25 30 35 39 40 41 41 40 40 38
10 14 6 6 7 10 16 7 7 9 9 12 11 16 7 6 11 10 10 11 12 13 19 29 35 38 39 38 34 31 29 30 30 30 29 25 22 20 18 18 18 24 27 30 34 37 39 41 44 43 42 42 40 35
5 7 9 9 7 6 7 7 8 8 11 10 12 15 12 8 9 6 6 10 10 12 17 21 25 27 28 29 29 28 25 24 25 25 24 23 21 21 23 26 29 32 35 38 41 43 44 43 44 43 40 38 37 36
Wind_Direction_850mb
283 280 281 282 280 277 278 277 270 267 263 264 258 254 253 245 237 235 240 237 233 250 251 228 228 221 199 190 166 158 125 196 162 197 187 217 174 219 120 185 179 171 162 194 139 206 274 189 113 176 224 230 222 212
281 284 283 282 282 284 278 283 271 265 263 257 260 256 249 244 240 234 243 241 230 240 255 236 229 233 227 221 210 182 213 169 175 153 223 120 236 97 177 249 292 263 196 182 187 215 242 196 218 225 214 231 253 256
280 280 279 280 281 281 282 277 274 267 271 263 251 257 252 240 241 236 233 235 236 225 250 255 242 234 231 240 237 209 212 206 210 199 158 184 230 128 182 236 187 254 186 227 85 250 243 251 248 252 252 253 259 267
282 280 278 280 280 280 279 278 274 270 264 264 268 253 255 256 231 239 240 232 226 213 208 242 237 234 235 232 232 227 234 217 215 204 182 161 203 197 226 237 204 196 149 192 261 275 275 264 256 268 273 268 264 265
283 283 283 281 280 280 281 277 274 272 266 264 265 267 254 246 237 234 239 242 231 208 213 200 227 217 218 227 233 234 229 225 196 160 193 211 209 177 220 27 246 182 203 205 248 261 248 263 278 278 277 282 273 261
279 285 285 281 280 279 277 282 277 271 271 265 259 260 254 244 232 227 238 237 232 221 231 219 217 215 218 218 219 220 219 220 212 187 186 224 200 180 229 245 261 239 240 236 247 262 268 272 276 280 274 275 273 264
280 285 285 284 280 280 277 277 279 278 276 263 263 254 256 243 226 219 202 205 225 208 204 175 211 177 192 185 187 197 209 211 214 202 219 196 189 185 223 253 260 268 264 263 262 261 268 266 266 278 273 277 267 260
279 283 283 282 282 279 277 278 278 275 271 268 266 258 252 232 229 231 229 219 197 186 200 201 114 139 171 161 144 179 178 197 218 230 202 176 160 206 250 252 272 268 270 265 262 260 263 270 272 273 269 265 260 252
285 284 280 280 281 278 275 274 273 274 269 264 263 266 246 230 205 241 226 235 226 195 179 146 147 193 165 144 143 152 163 161 206 216 223 164 202 222 234 245 255 269 258 274 281 275 271 265 270 271 267 254 248 246
284 281 281 280 277 273 270 270 270 270 269 264 274 231 225 219 228 226 183 195 201 199 207 156 138 152 157 140 157 129 169 208 199 231 168 218 251 253 256 261 267 275 275 281 275 277 271 266 270 271 265 263 250 242
281 278 278 274 271 272 277 273 266 266 270 258 214 190 192 167 167 184 219 187 202 179 159 140 148 129 173 141 146 195 173 187 205 248 176 254 271 239 255 256 265 272 280 278 276 277 276 280 279 270 266 267 242 229
283 282 280 279 282 287 287 276 264 252 241 245 250 145 156 174 194 197 187 188 195 185 133 125 132 124 148 153 119 174 170 149 240 143 94 271 249 254 266 268 278 286 278 278 275 270 285 281 269 250 245 253 243 230
281 289 289 287 285 287 294 270 254 248 244 221 190 257 177 223 204 191 174 188 149 143 145 142 119 124 134 158 100 127 147 210 116 89 230 232 258 274 275 287 300 297 294 289 284 281 284 282 266 246 234 229 230 229
280 286 283 288 290 292 281 257 239 231 229 216 162 216 220 203 225 215 165 167 161 151 146 147 119 126 138 94 135 149 184 92 80 277 237 245 257 269 279 301 303 310 312 316 315 310 304 283 284 249 239 231 231 234
275 282 285 285 293 283 263 234 233 235 227 225 160 180 222 160 55 270 149 134 138 150 141 122 87 115 128 109 98 106 56 248 206 224 225 245 278 296 296 286 288 289 320 320 317 319 319 306 302 258 236 231 223 222
269 279 276 292 279 254 232 230 217 208 191 181 146 152 206 74 187 154 80 136 146 152 146 109 121 149 175 143 146 211 139 216 233 221 247 294 311 322 304 303 290 293 305 312 312 314 312 310 300 268 230 226 213 211
267 267 284 284 258 229 220 225 110 80 134 65 199 133 209 140 230 140 149 169 158 145 134 122 133 189 111 84 236 178 196 225 244 261 293 315 324 339 328 313 306 304 304 307 307 304 304 307 308 276 246 230 215 209
257 269 268 259 230 189 194 106 108 159 188 173 153 176 161 92 168 136 146 148 158 124 131 170 124 116 172 168 248 221 230 261 275 281 291 300 303 301 293 296 302 307 314 313 310 307 308 311 312 290 254 218 211 209
253 248 248 209 175 152 140 143 186 125 162 277 254 170 174 153 219 207 157 164 153 148 129 126 142 193 214 212 217 30 357 342 324 313 309 307 295 298 295 298 307 316 319 321 320 318 314 311 309 299 269 221 208 207
249 233 219 185 166 163 120 113 162 148 139 171 183 159 145 118 142 161 163 151 133 123 78 149 207 228 199 22 344 343 351 342 328 326 342 341 337 316 314 323 331 338 339 338 331 328 324 320 318 305 268 218 202 202
146 169 191 161 141 99 87 143 140 131 134 134 168 158 118 135 140 156 171 165 139 175 210 219 243 259 268 279 293 313 326 332 336 331 327 318 321 317 325 348 0 360 356 352 345 344 345 342 340 327 260 201 193 193
101 127 129 146 81 104 99 90 101 125 137 135 148 107 115 148 168 164 156 210 228 211 196 228 247 254 258 276 281 297 315 302 309 323 321 304 305 309 346 12 20 16 10 1 357 359 3 12 59 86 116 153 163 174
98 97 82 107 109 68 90 138 130 124 121 244 99 56 320 17 186 156 162 221 232 233 235 244 257 261 262 265 267 292 291 274 284 301 296 284 286 346 31 31 32 29 14 5 9 17 27 45 87 100 117 138 154 160
100 84 73 72 66 198 126 38 94 116 114 95 127 237 255 192 163 202 232 245 223 228 230 238 246 252 253 253 256 263 278 280 271 278 271 259 231 145 64 51 37 29 17 5 19 30 42 64 90 111 123 134 139 143
94 0 61 360 69 79 62 7 342 53 248 215 118 285 238 167 145 204 221 250 225 224 229 232 234 240 244 253 258 262 265 268 264 262 251 228 232 172 77 59 40 25 6 358 11 38 68 89 104 114 120 129 137 138
87 311 93 188 249 122 186 129 193 209 174 234 231 228 148 117 152 238 225 238 237 236 228 226 228 232 237 242 250 256 258 252 255 244 234 224 228 204 145 68 33 355 350 345 1 47 108 119 123 126 127 128 134 138
142 260 168 177 116 137 22 297 231 115 212 210 203 169 159 209 233 240 225 227 231 235 233 232 228 230 234 239 243 248 247 238 237 227 217 208 205 220 193 73 36 318 310 324 3 114 124 134 136 136 137 136 137 142
156 174 171 176 184 197 167 201 191 219 226 213 148 183 187 210 242 256 224 234 258 253 243 232 229 225 229 234 237 236 229 224 219 212 205 201 194 203 151 142 220 215 104 259 152 146 144 143 142 140 142 142 139 139
184 177 172 194 201 217 217 208 226 234 194 188 174 230 241 237 251 273 283 286 286 276 243 227 220 220 221 221 222 219 215 213 209 205 205 200 193 191 167 163 199 161 122 177 170 157 150 147 146 147 147 146 141 139
215 184 142 166 180 230 235 203 230 227 219 221 245 272 272 272 281 281 280 282 276 257 230 211 204 213 214 212 210 207 208 205 206 210 210 207 200 195 183 174 192 146 166 182 178 171 159 155 151 150 150 147 144 143
186 195 247 212 243 250 246 249 253 263 258 254 248 249 257 285 289 278 266 265 252 229 206 197 189 190 196 198 199 200 201 202 201 202 200 201 200 194 196 210 185 162 183 178 173 169 163 158 156 154 152 149 147 148
198 211 182 252 270 276 290 263 265 258 229 216 238 221 253 244 262 263 265 246 214 195 191 187 185 185 186 188 189 191 194 196 197 203 208 211 210 210 213 206 175 176 176 170 167 164 162 160 155 154 152 150 147 148
266 236 243 275 279 251 233 240 241 266 223 224 227 202 206 232 252 266 238 192 169 163 163 166 169 173 181 188 192 193 195 195 194 194 195 194 190 188 182 173 171 170 168 165 162 159 159 159 156 153 151 149 147 147